| time (UTC) | temp F | wind direction | speed knots | gust knots | rain 1hr in | rain 24hr in | rain mn in | humidity % | barometer mb |
| 20260508071404 | 54 | 173 | 0.0 | 0.0 | 0.00 | 0.03 | 0.00 | 96 | 1006.8 |
| 20260508070903 | 54 | 173 | 0.0 | 0.0 | 0.00 | 0.03 | 0.00 | 96 | 1006.7 |
| 20260508070404 | 54 | 173 | 0.0 | 0.0 | 0.00 | 0.03 | 0.00 | 96 | 1006.7 |
| 20260508065903 | 53 | 173 | 0.0 | 4.3 | 0.00 | 0.03 | 0.00 | 96 | 1006.7 |
| 20260508065404 | 53 | 171 | 0.0 | 0.0 | 0.00 | 0.03 | 0.00 | 96 | 1006.8 |
| 20260508064903 | 53 | 171 | 0.0 | 0.0 | 0.00 | 0.03 | 0.00 | 96 | 1006.7 |
| 20260508064404 | 53 | 171 | 0.0 | 0.0 | 0.00 | 0.03 | 0.00 | 96 | 1006.7 |
| 20260508063903 | 53 | 171 | 0.0 | 0.0 | 0.00 | 0.03 | 0.00 | 96 | 1006.7 |
| 20260508063403 | 53 | 171 | 0.0 | 0.0 | 0.00 | 0.03 | 0.00 | 96 | 1006.7 |
| 20260508062903 | 53 | 171 | 0.0 | 1.7 | 0.00 | 0.03 | 0.00 | 96 | 1006.7 |
| 20260508062404 | 53 | 171 | 0.0 | 2.6 | 0.00 | 0.03 | 0.00 | 97 | 1006.7 |
| 20260508061404 | 53 | 171 | 0.0 | 0.0 | 0.00 | 0.03 | 0.00 | 97 | 1006.8 |
| 20260508061015 | 52 | 171 | 0.0 | 0.0 | 0.00 | 0.03 | 0.00 | 97 | 1006.8 |
| 20260508060404 | 52 | 171 | 0.0 | 0.0 | 0.00 | 0.03 | 0.00 | 97 | 1006.9 |
| 20260508055903 | 52 | 171 | 0.0 | 0.0 | 0.00 | 0.03 | 0.00 | 97 | 1006.9 |
| 20260508055404 | 52 | 171 | 0.0 | 0.0 | 0.00 | 0.03 | 0.00 | 97 | 1007.0 |
| 20260508054903 | 52 | 171 | 0.0 | 0.0 | 0.00 | 0.03 | 0.00 | 97 | 1006.9 |
| 20260508054403 | 52 | 171 | 0.0 | 0.0 | 0.00 | 0.03 | 0.00 | 97 | 1006.9 |
| 20260508053903 | 52 | 171 | 0.0 | 0.0 | 0.00 | 0.03 | 0.00 | 97 | 1006.9 |
| 20260508053404 | 52 | 171 | 0.0 | 0.0 | 0.00 | 0.03 | 0.00 | 97 | 1006.9 |
| 20260508052903 | 52 | 171 | 0.0 | 0.0 | 0.00 | 0.03 | 0.00 | 97 | 1006.9 |
| 20260508052403 | 52 | 171 | 0.0 | 0.0 | 0.00 | 0.03 | 0.00 | 97 | 1006.9 |
| 20260508051904 | 52 | 171 | 0.0 | 0.0 | 0.00 | 0.03 | 0.00 | 97 | 1006.9 |
| 20260508051404 | 52 | 171 | 0.0 | 0.0 | 0.00 | 0.03 | 0.00 | 97 | 1006.9 |
| 20260508050903 | 52 | 171 | 0.0 | 0.9 | 0.00 | 0.03 | 0.00 | 97 | 1006.8 |
| 20260508050404 | 52 | 171 | 0.9 | 2.6 | 0.00 | 0.03 | 0.00 | 97 | 1006.8 |
| 20260508045403 | 52 | 169 | 1.7 | 4.3 | 0.00 | 0.03 | 0.00 | 97 | 1006.8 |
| 20260508043903 | 52 | 162 | 0.0 | 0.0 | 0.00 | 0.04 | 0.00 | 97 | 1006.7 |
| 20260508043403 | 52 | 162 | 0.0 | 0.0 | 0.00 | 0.04 | 0.00 | 96 | 1006.7 |
| 20260508042903 | 52 | 162 | 0.9 | 1.7 | 0.00 | 0.04 | 0.00 | 96 | 1006.8 |
| 20260508042403 | 52 | 146 | 1.7 | 2.6 | 0.00 | 0.04 | 0.00 | 96 | 1006.8 |
| 20260508041904 | 53 | 96 | 1.7 | 2.6 | 0.00 | 0.04 | 0.00 | 97 | 1006.8 |
| 20260508040903 | 53 | 47 | 0.0 | 0.0 | 0.00 | 0.04 | 0.00 | 97 | 1006.8 |
| 20260508040403 | 53 | 5 | 0.0 | 0.0 | 0.00 | 0.04 | 0.00 | 97 | 1006.9 |
| 20260508035904 | 53 | 5 | 0.0 | 0.0 | 0.00 | 0.04 | 0.00 | 97 | 1006.9 |
| 20260508035403 | 53 | 5 | 0.0 | 0.0 | 0.00 | 0.04 | 0.00 | 97 | 1007.0 |
| 20260508034903 | 53 | 5 | 0.0 | 0.0 | 0.00 | 0.04 | 0.00 | 97 | 1007.2 |
| 20260508034403 | 53 | 5 | 0.0 | 0.0 | 0.00 | 0.04 | 0.00 | 97 | 1007.3 |
| 20260508033404 | 53 | 5 | 0.0 | 0.0 | 0.00 | 0.04 | 0.00 | 97 | 1007.2 |
| 20260508032904 | 53 | 294 | 0.0 | 0.0 | 0.00 | 0.04 | 0.00 | 97 | 1007.2 |
| 20260508032403 | 52 | 266 | 0.0 | 0.0 | 0.00 | 0.04 | 0.00 | 96 | 1007.3 |
| 20260508031903 | 52 | 266 | 0.0 | 0.0 | 0.00 | 0.04 | 0.00 | 96 | 1007.4 |
| 20260508031403 | 52 | 266 | 0.0 | 0.0 | 0.00 | 0.04 | 0.00 | 96 | 1007.5 |
| 20260508030903 | 52 | 266 | 0.0 | 0.0 | 0.00 | 0.04 | 0.00 | 96 | 1007.6 |
| 20260508030403 | 52 | 266 | 0.0 | 0.0 | 0.00 | 0.04 | 0.00 | 96 | 1007.6 |
| 20260508025904 | 53 | 266 | 0.0 | 5.2 | 0.00 | 0.04 | 0.00 | 96 | 1007.7 |
| 20260508025403 | 53 | 281 | 0.0 | 5.2 | 0.00 | 0.04 | 0.00 | 96 | 1007.7 |
| 20260508024903 | 53 | 286 | 0.0 | 0.0 | 0.00 | 0.04 | 0.00 | 95 | 1007.7 |
| 20260508024403 | 53 | 286 | 0.0 | 0.0 | 0.00 | 0.04 | 0.00 | 95 | 1007.8 |
| 20260508023904 | 53 | 286 | 0.9 | 5.2 | 0.00 | 0.04 | 0.00 | 95 | 1007.8 |
| 20260508023403 | 53 | 279 | 0.9 | 2.6 | 0.00 | 0.04 | 0.00 | 95 | 1007.9 |
| 20260508022903 | 53 | 196 | 0.0 | 0.0 | 0.00 | 0.04 | 0.00 | 95 | 1007.9 |
| 20260508022403 | 53 | 196 | 0.0 | 4.3 | 0.00 | 0.04 | 0.00 | 95 | 1007.8 |
| 20260508021903 | 53 | 198 | 1.7 | 2.6 | 0.00 | 0.04 | 0.00 | 94 | 1007.8 |
| 20260508021403 | 54 | 198 | 0.0 | 0.0 | 0.00 | 0.04 | 0.00 | 94 | 1007.7 |
| 20260508020403 | 54 | 198 | 0.0 | 0.0 | 0.00 | 0.04 | 0.00 | 94 | 1007.7 |
| 20260508015903 | 54 | 198 | 0.0 | 0.0 | 0.00 | 0.04 | 0.00 | 94 | 1007.8 |
| 20260508014904 | 54 | 198 | 0.0 | 0.0 | 0.00 | 0.04 | 0.00 | 94 | 1008.0 |
| 20260508014404 | 54 | 198 | 0.0 | 0.0 | 0.00 | 0.04 | 0.00 | 94 | 1008.0 |
| 20260508013904 | 54 | 198 | 0.0 | 0.0 | 0.00 | 0.04 | 0.00 | 94 | 1008.0 |
| 20260508013403 | 54 | 198 | 0.0 | 0.0 | 0.00 | 0.04 | 0.00 | 94 | 1008.1 |
| 20260508012903 | 54 | 198 | 0.0 | 1.7 | 0.00 | 0.04 | 0.00 | 94 | 1008.1 |
| 20260508012404 | 54 | 198 | 0.0 | 2.6 | 0.00 | 0.04 | 0.00 | 94 | 1008.1 |
| 20260508011904 | 54 | 198 | 0.0 | 0.0 | 0.00 | 0.04 | 0.00 | 94 | 1008.1 |
| 20260508011403 | 54 | 198 | 0.0 | 0.9 | 0.00 | 0.04 | 0.00 | 94 | 1008.1 |
| 20260508010404 | 54 | 197 | 0.9 | 2.6 | 0.00 | 0.04 | 0.00 | 94 | 1008.3 |
| 20260508004904 | 54 | 209 | 0.0 | 0.0 | 0.00 | 0.04 | 0.00 | 93 | 1008.5 |
| 20260508004404 | 54 | 209 | 0.0 | 0.0 | 0.00 | 0.04 | 0.00 | 93 | 1008.6 |
| 20260508003403 | 54 | 209 | 0.0 | 2.6 | 0.00 | 0.04 | 0.00 | 93 | 1008.7 |
| 20260508002404 | 55 | 222 | 0.9 | 2.6 | 0.00 | 0.04 | 0.00 | 93 | 1008.8 |
| 20260508001404 | 55 | 342 | 0.0 | 0.0 | 0.00 | 0.04 | 0.00 | 93 | 1008.8 |
| 20260508000904 | 55 | 342 | 0.0 | 0.0 | 0.00 | 0.04 | 0.00 | 93 | 1008.6 |
| 20260508000405 | 55 | 342 | 0.0 | 0.0 | 0.00 | 0.04 | 0.00 | 93 | 1008.8 |
| 20260507235903 | 55 | 244 | 0.0 | 0.0 | 0.00 | 0.04 | 0.00 | 93 | 1008.8 |
| 20260507235403 | 55 | 244 | 0.0 | 0.9 | 0.00 | 0.04 | 0.00 | 93 | 1008.9 |
| 20260507234903 | 55 | 244 | 0.0 | 1.7 | 0.00 | 0.04 | 0.00 | 93 | 1009.0 |
| 20260507234404 | 55 | 244 | 0.0 | 0.0 | 0.00 | 0.04 | 0.00 | 94 | 1009.0 |
| 20260507233903 | 55 | 244 | 0.0 | 0.0 | 0.00 | 0.04 | 0.00 | 94 | 1009.1 |
| 20260507233403 | 55 | 244 | 0.0 | 0.0 | 0.00 | 0.04 | 0.00 | 94 | 1009.1 |
| 20260507232903 | 55 | 244 | 0.0 | 0.0 | 0.00 | 0.04 | 0.00 | 94 | 1009.1 |
| 20260507231904 | 55 | 248 | 0.0 | 0.0 | 0.00 | 0.04 | 0.00 | 94 | 1009.1 |
| 20260507230903 | 55 | 245 | 0.9 | 2.6 | 0.00 | 0.04 | 0.00 | 94 | 1009.1 |
| 20260507230403 | 55 | 232 | 0.0 | 2.6 | 0.00 | 0.04 | 0.00 | 94 | 1009.2 |
| 20260507225903 | 55 | 228 | 1.7 | 4.3 | 0.00 | 0.04 | 0.00 | 93 | 1009.3 |
| 20260507224904 | 55 | 205 | 0.0 | 0.0 | 0.00 | 0.04 | 0.00 | 94 | 1009.3 |
| 20260507224403 | 55 | 181 | 0.0 | 0.0 | 0.00 | 0.04 | 0.00 | 94 | 1009.4 |
| 20260507223903 | 55 | 180 | 0.9 | 4.3 | 0.00 | 0.04 | 0.00 | 93 | 1009.4 |
| 20260507222404 | 55 | 183 | 0.0 | 2.6 | 0.00 | 0.04 | 0.00 | 93 | 1009.4 |
| 20260507221903 | 55 | 161 | 1.7 | 5.2 | 0.00 | 0.04 | 0.00 | 93 | 1009.4 |
| 20260507221404 | 55 | 163 | 1.7 | 2.6 | 0.00 | 0.04 | 0.00 | 92 | 1009.4 |
| 20260507220903 | 55 | 167 | 2.6 | 4.3 | 0.00 | 0.04 | 0.00 | 92 | 1009.5 |
| 20260507220403 | 55 | 159 | 1.7 | 4.3 | 0.00 | 0.04 | 0.00 | 92 | 1009.4 |
| 20260507215903 | 55 | 167 | 0.9 | 2.6 | 0.00 | 0.04 | 0.04 | 92 | 1009.4 |
| 20260507214403 | 55 | 178 | 1.7 | 2.6 | 0.00 | 0.04 | 0.04 | 92 | 1009.5 |
| 20260507213903 | 55 | 179 | 0.9 | 2.6 | 0.00 | 0.04 | 0.04 | 92 | 1009.5 |
| 20260507213403 | 56 | 181 | 1.7 | 4.3 | 0.00 | 0.04 | 0.04 | 92 | 1009.6 |
| 20260507212905 | 56 | 182 | 1.7 | 2.6 | 0.00 | 0.04 | 0.04 | 92 | 1009.6 |
| 20260507212403 | 56 | 186 | 0.0 | 2.6 | 0.00 | 0.04 | 0.04 | 92 | 1009.6 |
| 20260507211903 | 56 | 187 | 0.0 | 0.0 | 0.00 | 0.04 | 0.04 | 92 | 1009.6 |
| 20260507210903 | 56 | 187 | 0.0 | 2.6 | 0.00 | 0.04 | 0.04 | 92 | 1009.7 |
| 20260507210403 | 56 | 184 | 1.7 | 4.3 | 0.00 | 0.04 | 0.04 | 91 | 1009.8 |
| 20260507205904 | 56 | 183 | 5.2 | 7.0 | 0.00 | 0.04 | 0.04 | 90 | 1009.8 |
| 20260507205403 | 57 | 186 | 4.3 | 7.8 | 0.00 | 0.04 | 0.04 | 90 | 1009.7 |
| 20260507204904 | 57 | 186 | 0.9 | 2.6 | 0.00 | 0.04 | 0.04 | 90 | 1009.6 |
| 20260507204403 | 57 | 189 | 0.0 | 0.9 | 0.00 | 0.04 | 0.04 | 90 | 1009.5 |
| 20260507203403 | 57 | 189 | 0.0 | 0.0 | 0.00 | 0.04 | 0.04 | 90 | 1009.4 |
| 20260507202903 | 57 | 189 | 0.0 | 0.9 | 0.00 | 0.04 | 0.04 | 90 | 1009.3 |
| 20260507202403 | 57 | 189 | 0.9 | 2.6 | 0.00 | 0.04 | 0.04 | 89 | 1009.3 |
| 20260507201903 | 57 | 189 | 0.9 | 1.7 | 0.00 | 0.04 | 0.04 | 89 | 1009.3 |
| 20260507201403 | 57 | 189 | 0.9 | 2.6 | 0.00 | 0.04 | 0.04 | 89 | 1009.3 |
| 20260507200903 | 57 | 192 | 1.7 | 2.6 | 0.00 | 0.04 | 0.04 | 88 | 1009.3 |
| 20260507200403 | 58 | 192 | 2.6 | 4.3 | 0.00 | 0.04 | 0.04 | 88 | 1009.2 |
| 20260507195904 | 58 | 193 | 0.9 | 2.6 | 0.00 | 0.04 | 0.04 | 87 | 1009.2 |
| 20260507195403 | 58 | 194 | 1.7 | 2.6 | 0.00 | 0.04 | 0.04 | 87 | 1009.2 |
| 20260507194903 | 58 | 194 | 0.0 | 0.0 | 0.00 | 0.04 | 0.04 | 86 | 1009.1 |
| 20260507194404 | 58 | 194 | 0.0 | 0.0 | 0.00 | 0.04 | 0.04 | 86 | 1009.0 |
| 20260507193903 | 58 | 195 | 0.0 | 0.0 | 0.00 | 0.04 | 0.04 | 86 | 1009.0 |
| 20260507193403 | 58 | 195 | 0.0 | 0.0 | 0.00 | 0.04 | 0.04 | 86 | 1009.0 |
| 20260507192903 | 58 | 194 | 0.0 | 2.6 | 0.00 | 0.04 | 0.04 | 86 | 1008.9 |
| 20260507192404 | 58 | 195 | 1.7 | 2.6 | 0.00 | 0.04 | 0.04 | 86 | 1008.9 |
| 20260507191903 | 58 | 194 | 1.7 | 2.6 | 0.00 | 0.04 | 0.04 | 86 | 1008.9 |
| 20260507191403 | 58 | 195 | 2.6 | 5.2 | 0.00 | 0.04 | 0.04 | 86 | 1008.9 |
| 20260507190903 | 59 | 196 | 2.6 | 4.3 | 0.00 | 0.04 | 0.04 | 85 | 1008.9 |
| 20260507190404 | 59 | 190 | 1.7 | 4.3 | 0.00 | 0.04 | 0.04 | 84 | 1008.8 |
| 20260507185904 | 59 | 195 | 2.6 | 5.2 | 0.00 | 0.04 | 0.04 | 83 | 1008.7 |
| 20260507185421 | 59 | 162 | 4.3 | 5.2 | 0.00 | 0.04 | 0.04 | 83 | 1008.7 |
| 20260507184903 | 59 | 164 | 0.0 | 2.6 | 0.00 | 0.04 | 0.04 | 83 | 1008.6 |
| 20260507183904 | 59 | 190 | 0.9 | 2.6 | 0.00 | 0.04 | 0.04 | 83 | 1008.7 |
| 20260507183404 | 59 | 191 | 0.0 | 2.6 | 0.00 | 0.04 | 0.04 | 82 | 1008.6 |
| 20260507182903 | 59 | 191 | 0.0 | 1.7 | 0.00 | 0.04 | 0.04 | 83 | 1008.5 |
| 20260507182403 | 59 | 190 | 0.9 | 2.6 | 0.00 | 0.04 | 0.04 | 83 | 1008.5 |
| 20260507181904 | 59 | 192 | 0.0 | 1.7 | 0.00 | 0.04 | 0.04 | 83 | 1008.6 |
| 20260507180903 | 59 | 192 | 2.6 | 7.0 | 0.00 | 0.04 | 0.04 | 84 | 1008.6 |
| 20260507180403 | 59 | 173 | 2.6 | 4.3 | 0.00 | 0.04 | 0.04 | 85 | 1008.6 |
| 20260507175404 | 60 | 200 | 7.0 | 10.4 | 0.00 | 0.04 | 0.04 | 85 | 1008.6 |
| 20260507174904 | 60 | 152 | 2.6 | 7.0 | 0.00 | 0.04 | 0.04 | 84 | 1008.5 |
| 20260507174404 | 60 | 51 | 2.6 | 10.4 | 0.00 | 0.04 | 0.04 | 83 | 1008.4 |
| 20260507173904 | 60 | 49 | 7.8 | 12.2 | 0.00 | 0.04 | 0.04 | 84 | 1008.3 |
| 20260507173403 | 61 | 68 | 3.5 | 8.7 | 0.00 | 0.04 | 0.04 | 85 | 1008.5 |
| 20260507172903 | 61 | 123 | 3.5 | 7.8 | 0.00 | 0.04 | 0.04 | 85 | 1008.9 |
| 20260507172404 | 62 | 158 | 1.7 | 7.0 | 0.00 | 0.04 | 0.04 | 84 | 1009.0 |
| 20260507171903 | 62 | 141 | 1.7 | 5.2 | 0.00 | 0.04 | 0.04 | 83 | 1009.0 |
| 20260507171404 | 62 | 170 | 1.7 | 5.2 | 0.00 | 0.04 | 0.04 | 83 | 1008.9 |
| 20260507170903 | 62 | 172 | 0.0 | 0.9 | 0.00 | 0.04 | 0.04 | 82 | 1008.8 |
| 20260507170404 | 62 | 173 | 0.9 | 2.6 | 0.00 | 0.04 | 0.04 | 81 | 1008.7 |
| 20260507165903 | 62 | 172 | 1.7 | 6.1 | 0.00 | 0.04 | 0.04 | 79 | 1008.7 |
| 20260507165404 | 62 | 150 | 1.7 | 2.6 | 0.00 | 0.04 | 0.04 | 76 | 1008.6 |
| 20260507164903 | 62 | 81 | 0.0 | 0.0 | 0.00 | 0.04 | 0.04 | 78 | 1008.5 |
| 20260507163903 | 62 | 77 | 0.0 | 0.0 | 0.00 | 0.04 | 0.04 | 79 | 1008.4 |
| 20260507163404 | 62 | 77 | 0.0 | 0.0 | 0.00 | 0.04 | 0.04 | 80 | 1008.3 |
| 20260507162404 | 61 | 77 | 0.0 | 0.0 | 0.00 | 0.04 | 0.04 | 82 | 1008.3 |
| 20260507161904 | 61 | 76 | 0.0 | 0.9 | 0.00 | 0.04 | 0.04 | 83 | 1008.2 |
| 20260507161403 | 61 | 76 | 0.0 | 1.7 | 0.00 | 0.04 | 0.04 | 83 | 1008.2 |
| 20260507160904 | 61 | 69 | 1.7 | 4.3 | 0.00 | 0.04 | 0.04 | 82 | 1008.2 |
| 20260507155904 | 62 | 83 | 2.6 | 7.0 | 0.00 | 0.04 | 0.04 | 80 | 1008.1 |
| 20260507155404 | 62 | 19 | 1.7 | 6.1 | 0.00 | 0.04 | 0.04 | 79 | 1008.1 |
| 20260507154903 | 62 | 85 | 1.7 | 7.0 | 0.01 | 0.04 | 0.04 | 79 | 1008.1 |
| 20260507154404 | 62 | 353 | 2.6 | 6.1 | 0.02 | 0.04 | 0.04 | 77 | 1008.1 |
| 20260507153904 | 62 | 18 | 2.6 | 7.8 | 0.02 | 0.04 | 0.04 | 77 | 1008.0 |
| 20260507153404 | 61 | 6 | 6.1 | 10.4 | 0.03 | 0.04 | 0.04 | 78 | 1008.0 |
| 20260507152904 | 62 | 71 | 2.6 | 7.0 | 0.03 | 0.04 | 0.04 | 80 | 1008.1 |
| 20260507152404 | 61 | 112 | 1.7 | 5.2 | 0.03 | 0.04 | 0.04 | 81 | 1008.0 |
| 20260507151903 | 61 | 5 | 0.9 | 2.6 | 0.03 | 0.04 | 0.04 | 81 | 1008.0 |
| 20260507150904 | 61 | 321 | 5.2 | 10.4 | 0.03 | 0.04 | 0.04 | 82 | 1007.9 |
| 20260507150404 | 61 | 330 | 3.5 | 5.2 | 0.03 | 0.04 | 0.04 | 84 | 1007.8 |
| 20260507145404 | 61 | 43 | 2.6 | 13.0 | 0.03 | 0.04 | 0.04 | 83 | 1007.6 |
| 20260507144903 | 61 | 22 | 10.4 | 14.8 | 0.02 | 0.03 | 0.03 | 81 | 1007.5 |
| 20260507144404 | 62 | 13 | 6.1 | 10.4 | 0.02 | 0.02 | 0.02 | 79 | 1008.0 |
| 20260507143904 | 62 | 289 | 0.0 | 1.7 | 0.01 | 0.02 | 0.02 | 78 | 1008.4 |
| 20260507143404 | 62 | 289 | 1.7 | 6.1 | 0.00 | 0.01 | 0.01 | 76 | 1008.5 |
| 20260507142904 | 63 | 280 | 1.7 | 4.3 | 0.00 | 0.01 | 0.01 | 77 | 1008.6 |
| 20260507142404 | 63 | 254 | 1.7 | 4.3 | 0.00 | 0.01 | 0.01 | 77 | 1008.5 |
| 20260507141903 | 63 | 330 | 1.7 | 5.2 | 0.00 | 0.01 | 0.01 | 77 | 1008.5 |
| 20260507140904 | 63 | 23 | 4.3 | 10.4 | 0.00 | 0.02 | 0.01 | 78 | 1008.1 |
| 20260507140404 | 63 | 17 | 8.7 | 12.2 | 0.00 | 0.03 | 0.01 | 77 | 1008.0 |
| 20260507135903 | 64 | 29 | 3.5 | 10.4 | 0.00 | 0.03 | 0.01 | 77 | 1008.0 |
| 20260507135403 | 63 | 50 | 2.6 | 8.7 | 0.00 | 0.04 | 0.01 | 77 | 1008.0 |
| 20260507134903 | 63 | 38 | 6.1 | 10.4 | 0.00 | 0.05 | 0.01 | 78 | 1008.0 |
| 20260507134403 | 62 | 39 | 6.1 | 12.2 | 0.00 | 0.05 | 0.01 | 80 | 1008.0 |
| 20260507133903 | 62 | 39 | 6.1 | 11.3 | 0.00 | 0.05 | 0.01 | 82 | 1008.0 |
| 20260507133403 | 63 | 23 | 7.8 | 11.3 | 0.00 | 0.05 | 0.01 | 82 | 1008.1 |
| 20260507132404 | 62 | 27 | 6.1 | 8.7 | 0.00 | 0.05 | 0.01 | 82 | 1008.4 |
| 20260507131903 | 63 | 43 | 2.6 | 4.3 | 0.00 | 0.05 | 0.01 | 81 | 1008.6 |
| 20260507131404 | 63 | 82 | 0.9 | 7.0 | 0.00 | 0.05 | 0.01 | 80 | 1008.6 |
| 20260507130904 | 63 | 75 | 0.9 | 7.8 | 0.00 | 0.05 | 0.01 | 79 | 1008.6 |
| 20260507125403 | 63 | 1 | 2.6 | 11.3 | 0.00 | 0.05 | 0.01 | 77 | 1008.7 |
| 20260507124904 | 63 | 65 | 1.7 | 8.7 | 0.00 | 0.05 | 0.01 | 77 | 1008.7 |
| 20260507124404 | 63 | 53 | 5.2 | 10.4 | 0.00 | 0.05 | 0.01 | 75 | 1008.7 |
| 20260507123903 | 63 | 43 | 3.5 | 7.8 | 0.00 | 0.05 | 0.01 | 75 | 1008.8 |
| 20260507123404 | 63 | 41 | 3.5 | 8.7 | 0.00 | 0.05 | 0.01 | 77 | 1008.7 |
| 20260507122904 | 63 | 351 | 5.2 | 10.4 | 0.00 | 0.05 | 0.01 | 79 | 1008.7 |
| 20260507122403 | 62 | 35 | 4.3 | 13.0 | 0.00 | 0.05 | 0.01 | 80 | 1008.8 |
| 20260507121404 | 63 | 11 | 6.1 | 10.4 | 0.00 | 0.05 | 0.01 | 79 | 1009.0 |
| 20260507120904 | 62 | 34 | 0.9 | 5.2 | 0.00 | 0.05 | 0.01 | 80 | 1009.1 |
| 20260507120404 | 62 | 5 | 0.9 | 2.6 | 0.00 | 0.05 | 0.01 | 80 | 1009.3 |
| 20260507115404 | 62 | 308 | 4.3 | 7.0 | 0.00 | 0.05 | 0.01 | 78 | 1009.3 |
| 20260507114904 | 62 | 5 | 0.0 | 1.7 | 0.00 | 0.05 | 0.01 | 78 | 1009.5 |
| 20260507114404 | 62 | 56 | 0.9 | 1.7 | 0.00 | 0.05 | 0.01 | 77 | 1009.6 |
| 20260507113903 | 62 | 57 | 0.9 | 2.6 | 0.00 | 0.05 | 0.01 | 77 | 1009.7 |
| 20260507113403 | 63 | 54 | 1.7 | 2.6 | 0.00 | 0.05 | 0.01 | 77 | 1009.7 |
| 20260507112904 | 63 | 90 | 1.7 | 4.3 | 0.00 | 0.05 | 0.01 | 76 | 1009.7 |
| 20260507112404 | 62 | 138 | 0.0 | 1.7 | 0.00 | 0.05 | 0.01 | 77 | 1009.7 |
| 20260507111905 | 62 | 137 | 1.7 | 2.6 | 0.00 | 0.05 | 0.01 | 78 | 1009.7 |
| 20260507111404 | 62 | 46 | 2.6 | 7.0 | 0.00 | 0.05 | 0.01 | 78 | 1009.6 |
| 20260507110904 | 62 | 14 | 2.6 | 7.0 | 0.00 | 0.05 | 0.01 | 78 | 1009.7 |
| 20260507110403 | 61 | 55 | 1.7 | 4.3 | 0.00 | 0.05 | 0.01 | 78 | 1009.7 |
| 20260507105904 | 61 | 42 | 1.7 | 5.2 | 0.00 | 0.05 | 0.01 | 80 | 1009.7 |
| 20260507105404 | 61 | 89 | 1.7 | 2.6 | 0.00 | 0.05 | 0.01 | 81 | 1009.7 |
| 20260507104904 | 60 | 20 | 1.7 | 7.0 | 0.00 | 0.05 | 0.01 | 81 | 1009.7 |
| 20260507104404 | 59 | 91 | 0.9 | 6.1 | 0.00 | 0.05 | 0.01 | 82 | 1009.9 |
| 20260507102904 | 58 | 17 | 1.7 | 4.3 | 0.00 | 0.05 | 0.01 | 86 | 1010.0 |
| 20260507102404 | 58 | 65 | 1.7 | 2.6 | 0.00 | 0.05 | 0.01 | 87 | 1010.2 |
| 20260507101903 | 58 | 63 | 0.9 | 2.6 | 0.00 | 0.05 | 0.01 | 89 | 1010.2 |
| 20260507101404 | 57 | 63 | 2.6 | 4.3 | 0.00 | 0.05 | 0.01 | 91 | 1010.2 |
| 20260507095904 | 56 | 0 | 2.6 | 7.0 | 0.00 | 0.05 | 0.01 | 99 | 1010.3 |
| 20260507095403 | 55 | 340 | 0.0 | 2.6 | 0.00 | 0.05 | 0.01 | 99 | 1010.3 |
| 20260507094904 | 55 | 327 | 0.9 | 2.6 | 0.00 | 0.05 | 0.01 | 100 | 1010.3 |
| 20260507094403 | 54 | 321 | 1.7 | 4.3 | 0.00 | 0.05 | 0.01 | 100 | 1010.3 |
| 20260507093904 | 53 | 288 | 0.9 | 2.6 | 0.00 | 0.05 | 0.01 | 100 | 1010.4 |
| 20260507093404 | 53 | 289 | 0.9 | 4.3 | 0.00 | 0.05 | 0.01 | 100 | 1010.5 |
| 20260507092903 | 53 | 259 | 0.9 | 2.6 | 0.00 | 0.05 | 0.01 | 100 | 1010.5 |
| 20260507092403 | 53 | 259 | 1.7 | 2.6 | 0.00 | 0.05 | 0.01 | 100 | 1010.5 |
| 20260507091903 | 52 | 257 | 0.9 | 2.6 | 0.00 | 0.05 | 0.01 | 100 | 1010.5 |
| 20260507091403 | 52 | 288 | 0.9 | 2.6 | 0.00 | 0.05 | 0.01 | 100 | 1010.5 |
| 20260507090904 | 52 | 284 | 0.9 | 2.6 | 0.00 | 0.05 | 0.01 | 100 | 1010.5 |
| 20260507090404 | 52 | 286 | 1.7 | 2.6 | 0.00 | 0.05 | 0.01 | 100 | 1010.4 |
| 20260507085404 | 51 | 241 | 0.9 | 1.7 | 0.00 | 0.05 | 0.01 | 100 | 1010.4 |
| 20260507084904 | 51 | 178 | 0.0 | 0.9 | 0.00 | 0.05 | 0.01 | 100 | 1010.4 |
| 20260507084404 | 51 | 178 | 0.0 | 0.9 | 0.00 | 0.05 | 0.01 | 100 | 1010.5 |
| 20260507083904 | 51 | 178 | 0.0 | 0.0 | 0.00 | 0.05 | 0.01 | 100 | 1010.4 |
| 20260507083404 | 51 | 178 | 0.0 | 0.0 | 0.00 | 0.05 | 0.01 | 100 | 1010.5 |
| 20260507082403 | 50 | 179 | 0.0 | 0.0 | 0.00 | 0.05 | 0.01 | 100 | 1010.6 |
| 20260507081903 | 50 | 179 | 0.0 | 0.0 | 0.00 | 0.05 | 0.01 | 100 | 1010.6 |
| 20260507081404 | 50 | 179 | 0.0 | 0.0 | 0.00 | 0.05 | 0.01 | 100 | 1010.6 |
| 20260507080403 | 50 | 176 | 0.9 | 1.7 | 0.00 | 0.05 | 0.01 | 100 | 1010.6 |
| 20260507075904 | 49 | 182 | 0.0 | 1.7 | 0.00 | 0.05 | 0.01 | 100 | 1010.7 |
| 20260507075404 | 49 | 187 | 0.9 | 2.6 | 0.00 | 0.05 | 0.01 | 100 | 1010.8 |
| 20260507074904 | 49 | 214 | 0.0 | 0.0 | 0.00 | 0.05 | 0.01 | 100 | 1010.8 |
| 20260507073903 | 48 | 239 | 0.0 | 0.0 | 0.00 | 0.05 | 0.01 | 100 | 1010.8 |
| 20260507073404 | 48 | 239 | 0.0 | 0.0 | 0.00 | 0.05 | 0.01 | 100 | 1010.9 |
| 20260507072904 | 48 | 239 | 0.0 | 2.6 | 0.00 | 0.05 | 0.01 | 100 | 1010.9 |
| 20260507072403 | 48 | 238 | 0.9 | 2.6 | 0.00 | 0.05 | 0.01 | 100 | 1011.0 |
| 20260507071905 | 48 | 238 | 0.9 | 2.6 | 0.00 | 0.05 | 0.01 | 100 | 1011.0 |